Date String (YYYY-MM-DD hh:mm:ss) UTC,Instrument flags,Ambient pressure (hPa),Sample flow (lpm),Bypass flow (lpm),Sample temperature (°C),Ambient temperature (°C),ASC tube jacket temperature (°C),LED temperature (°C),Box temperature (°C),Sample RH (%),Span deviation,Mass concentration (μg/m³),Mass concentration (μg/m³),Mass concentration (μg/m³)
DateTimeUTC,F1_M11,P_M11,Q1_M11,Q2_M11,T1_M11,T2_M11,T3_M11,T4_M11,T5_M11,U1_M11,ZSPAN_M11,X0_M11,X2_M11,X1_M11
2021-12-14 14:00:00,,0822.1,5.00,0.00,23.9,23.0,00.0,32.9,25.5,07.7,0005.4,0019.19,0005.91,0004.07
2021-12-14 14:01:00,,0822.0,5.00,0.00,23.9,23.0,00.0,32.9,25.5,07.6,0004.2,0019.37,0005.87,0004.06
2021-12-14 14:02:00,,0822.0,5.00,0.00,23.9,23.0,00.0,32.9,25.5,07.6,0001.2,0019.61,0005.87,0004.06
2021-12-14 14:03:00,,0821.9,5.00,0.00,23.9,23.0,00.0,32.9,25.5,07.6,0000.0,0018.44,0005.81,0004.03
2021-12-14 14:04:00,,0821.9,5.01,0.00,23.9,23.0,00.0,32.9,25.5,07.7,0000.0,0018.22,0005.73,0003.99
2021-12-14 14:05:00,,0821.8,5.00,0.00,23.9,23.0,00.0,32.9,25.5,07.7,0000.0,0018.33,0005.74,0004.00
2021-12-14 14:06:00,,0821.8,5.01,0.00,23.9,23.0,00.0,32.9,25.5,07.6,0000.0,0017.67,0005.74,0004.01
2021-12-14 14:07:00,,0821.8,4.99,0.00,23.9,23.0,00.0,32.9,25.5,07.6,0000.0,0017.22,0005.68,0003.97
2021-12-14 14:08:00,,0822.0,5.00,0.00,23.9,23.1,00.0,32.9,25.5,07.6,0007.2,0016.88,0005.60,0003.95
2021-12-14 14:09:00,,0822.2,5.00,0.00,23.9,23.1,00.0,32.9,25.5,07.7,0003.9,0016.30,0005.58,0003.98
2021-12-14 14:10:00,,0821.9,5.00,0.00,23.9,23.1,00.0,32.9,25.5,07.7,0000.0,0016.26,0005.57,0003.98
2021-12-14 14:11:00,,0821.8,5.00,0.00,23.9,23.1,00.0,32.9,25.5,07.6,0000.0,0015.59,0005.55,0003.99
2021-12-14 14:12:00,,0821.8,5.01,0.00,23.9,23.1,00.0,32.9,25.5,07.6,0000.0,0015.49,0005.57,0003.98
2021-12-14 14:13:00,,0821.8,4.99,0.00,23.9,23.0,00.0,32.9,25.5,07.6,0000.0,0015.10,0005.56,0004.00
2021-12-14 14:14:00,,0821.8,5.00,0.00,23.9,23.0,00.0,32.9,25.5,07.7,0000.0,0015.33,0005.58,0004.01
2021-12-14 14:15:00,,0821.7,4.99,0.00,23.9,23.1,00.0,32.9,25.5,07.7,0000.0,0015.14,0005.54,0004.02
2021-12-14 14:16:00,,0821.5,5.00,0.00,23.9,23.1,00.0,32.9,25.5,07.7,0000.0,0014.61,0005.44,0004.01
2021-12-14 14:17:00,,0821.5,4.99,0.00,23.9,23.0,00.0,32.9,25.5,07.6,0000.0,0014.99,0005.43,0004.00
2021-12-14 14:18:00,,0821.5,5.00,0.00,23.9,23.0,00.0,32.9,25.5,07.6,0000.0,0016.79,0005.47,0004.03
2021-12-14 14:19:00,,0821.5,5.01,0.00,23.9,23.0,00.0,32.9,25.5,07.6,0000.0,0018.13,0005.58,0004.09
2021-12-14 14:20:00,,0821.6,5.00,0.00,23.9,23.0,00.0,32.9,25.5,07.7,0000.0,0018.73,0005.62,0004.11
2021-12-14 14:21:00,,0821.7,5.00,0.00,23.9,23.0,00.0,32.9,25.5,07.8,0000.0,0019.05,0005.63,0004.13
2021-12-14 14:22:00,,0821.8,5.00,0.00,23.9,23.0,00.0,32.9,25.5,08.0,0000.0,0019.13,0005.66,0004.15
2021-12-14 14:23:00,,0821.7,5.00,0.00,23.9,23.0,00.0,32.9,25.5,08.1,0000.0,0018.92,0005.65,0004.16
2021-12-14 14:24:00,,0821.6,5.00,0.00,23.8,23.0,00.0,32.9,25.5,08.0,0000.0,0018.48,0005.59,0004.14
2021-12-14 14:25:00,,0821.5,5.00,0.00,23.8,23.0,00.0,32.9,25.5,07.9,0000.0,0018.19,0005.61,0004.15
2021-12-14 14:26:00,,0821.6,5.00,0.00,23.8,22.9,00.0,32.9,25.5,07.8,0000.0,0018.70,0005.68,0004.19
2021-12-14 14:27:00,,0821.6,4.99,0.00,23.8,22.9,00.0,32.9,25.5,07.8,0000.0,0019.09,0005.69,0004.20
2021-12-14 14:28:00,,0821.6,5.00,0.00,23.8,22.9,00.0,32.9,25.5,07.8,0000.0,0019.06,0005.72,0004.21
2021-12-14 14:29:00,,0821.6,4.99,0.00,23.8,22.9,00.0,32.8,25.5,07.8,0000.0,0018.48,0005.67,0004.18
2021-12-14 14:30:00,,0821.7,5.00,0.00,23.8,22.9,00.0,32.8,25.5,07.8,0000.0,0017.41,0005.61,0004.13
2021-12-14 14:31:00,,0821.8,5.01,0.00,23.8,23.0,00.0,32.8,25.5,07.9,0000.0,0017.44,0005.58,0004.12
2021-12-14 14:32:00,,0821.8,5.00,0.00,23.8,23.0,00.0,32.8,25.5,07.8,0000.0,0016.86,0005.53,0004.12
2021-12-14 14:33:00,,0821.8,5.00,0.00,23.8,23.0,00.0,32.8,25.5,07.7,0000.0,0017.04,0005.53,0004.11
2021-12-14 14:34:00,,0821.7,5.00,0.00,23.8,22.9,00.0,32.8,25.5,07.6,0000.0,0016.95,0005.58,0004.14
2021-12-14 14:35:00,,0821.7,5.01,0.00,23.8,22.9,00.0,32.8,25.5,07.6,0000.0,0017.63,0005.72,0004.23
2021-12-14 14:36:00,,0821.7,5.00,0.00,23.8,22.9,00.0,32.8,25.5,07.6,0000.0,0018.18,0005.79,0004.32
2021-12-14 14:37:00,,0821.7,5.01,0.00,23.8,22.9,00.0,32.8,25.5,07.6,0000.0,0018.32,0005.88,0004.38
2021-12-14 14:38:00,,0821.9,4.99,0.00,23.8,22.9,00.0,32.8,25.5,07.6,0004.4,0019.03,0006.05,0004.47
2021-12-14 14:39:00,,0821.8,5.01,0.00,23.8,22.9,00.0,32.8,25.5,07.9,0001.8,0018.41,0006.08,0004.50
2021-12-14 14:40:00,,0821.8,5.02,0.00,23.8,22.9,00.0,32.8,25.5,07.8,0000.0,0017.05,0006.12,0004.53
2021-12-14 14:41:00,,0821.8,5.01,0.00,23.8,22.9,00.0,32.8,25.5,07.9,0006.1,0016.94,0006.12,0004.55
2021-12-14 14:42:00,,0822.1,4.99,0.00,23.8,22.9,00.0,32.8,25.5,07.9,0007.6,0016.73,0006.13,0004.54
2021-12-14 14:43:00,,0821.8,5.00,0.00,23.7,22.9,00.0,32.8,25.4,08.0,0011.8,0017.12,0006.20,0004.52
2021-12-14 14:44:00,,0821.8,5.02,0.00,23.7,22.9,00.0,32.8,25.4,07.9,0009.6,0017.17,0006.22,0004.52
2021-12-14 14:45:00,,0821.8,4.99,0.00,23.7,22.9,00.0,32.8,25.5,07.7,0000.8,0017.11,0006.17,0004.52
2021-12-14 14:46:00,,0821.9,5.00,0.00,23.7,22.9,00.0,32.8,25.5,07.7,0001.0,0017.48,0006.16,0004.50
2021-12-14 14:47:00,,0821.9,5.01,0.00,23.8,22.9,00.0,32.8,25.5,07.6,0000.2,0017.44,0006.07,0004.46
2021-12-14 14:48:00,,0821.9,4.99,0.00,23.8,22.9,00.0,32.8,25.5,07.8,-000.3,0017.05,0005.90,0004.40
2021-12-14 14:49:00,,0821.8,4.98,0.00,23.7,22.9,00.0,32.8,25.4,08.0,0000.3,0015.52,0005.74,0004.32
2021-12-14 14:50:00,,0821.9,5.01,0.00,23.7,22.9,00.0,32.8,25.4,08.1,0000.0,0015.46,0005.73,0004.30
2021-12-14 14:51:00,,0821.8,4.99,0.00,23.7,22.9,00.0,32.8,25.5,08.1,0001.1,0015.89,0005.78,0004.30
2021-12-14 14:52:00,,0821.8,5.00,0.00,23.7,22.9,00.0,32.8,25.4,08.0,0002.0,0016.82,0005.87,0004.31
2021-12-14 14:53:00,,0821.9,5.00,0.00,23.7,22.9,00.0,32.8,25.4,08.1,0000.0,0017.63,0006.01,0004.34
2021-12-14 14:54:00,,0821.8,4.99,0.00,23.7,22.9,00.0,32.7,25.5,08.1,0000.0,0018.22,0006.08,0004.40
2021-12-14 14:55:00,,0821.8,5.00,0.00,23.7,22.9,00.0,32.7,25.5,08.1,0000.0,0018.88,0006.14,0004.45
2021-12-14 14:56:00,,0821.8,4.99,0.00,23.7,22.9,00.0,32.7,25.4,08.1,0000.0,0020.04,0006.20,0004.47
2021-12-14 14:57:00,,0821.8,5.01,0.00,23.7,22.9,00.0,32.7,25.5,08.1,0000.0,0020.12,0006.20,0004.50
2021-12-14 14:58:00,,0821.8,5.00,0.00,23.7,22.9,00.0,32.7,25.5,07.9,0000.0,0019.28,0006.27,0004.50
2021-12-14 14:59:00,,0821.8,4.99,0.00,23.7,22.9,00.0,32.7,25.5,07.9,0001.2,0019.52,0006.36,0004.50
